Location: Antin
(43.3330°N, 0.2804°E)
Time: 17:41:10
(UTC+00:00)

SME Rocket - Pass Details

Date: 18 December 2023
Orbit: 550 x 2645 km, 99.9° (Epoch: 20 February)

Event Time Altitude Azimuth Distance (km) Brightness Sun altitude
Rises 18:31:05 0° 160° (SSE) 3,778 7.0 -22.1°
Reaches altitude 10° 18:33:10 10° 160° (SSE) 3,029 6.5 -22.4°
Maximum altitude 18:40:17 86° 73° (ENE) 1,547 4.9 -23.7°
Drops below altitude 10° 18:51:29 10° 346° (NNW) 4,630 7.5 -25.7°
Sets 18:55:22 0° 346° (NNW) 5,881 8.1 -26.4°
